Location: Sihaung
(22.8641°N, 94.0549°E)
Time: 17:01:01
(UTC+00:00)

CSL-04 Rocket - Pass Details

Date: 03 March 2021
Orbit: 805 x 861 km, 98.9° (Epoch: 13 April)

Event Time Altitude Azimuth Distance (km) Brightness Sun altitude
Rises 13:09:30 0° 166° (SSE) 3,420 6.7 -19.5°
Reaches altitude 10° 13:11:51 10° 166° (SSE) 2,487 6.0 -20.1°
Maximum altitude 13:17:24 90° 132° (SE) 863 3.6 -21.4°
Drops below altitude 10° 13:22:57 10° 347° (NNW) 2,489 6.3 -22.6°
Sets 13:25:19 0° 348° (NNW) 3,422 7.0 -23.2°
